Regional Weather Roundup
Issued by NWS

Home | Current Version | Previous Version | Graphics & Text | Print | Product List | Glossary On
Versions: 1 2 3 4 5 6 7 8 9 10 11 12 13 14 15 16 17 18 19 20 21 22 23 24 25 26 27 28 29 30 31 32 33 34 35 36 37 38 39 40 41 42 43 44 45 46 47 48 49 50
000
ASUS45 KTFX 162110
RWRMT
MONTANA REGIONAL WEATHER ROUNDUP
NATIONAL WEATHER SERVICE GREAT FALLS MT
300 PM MDT WED AUG 16 2017

NOTE: "FAIR" INDICATES FEW OR NO CLOUDS BELOW 12000 FEET WITH NO
SIGNIFICANT WEATHER AND/OR OBSTRUCTIONS TO VISIBILITY.

MTZ001>007-043-162200-
WEST OF THE DIVIDE

CITY           SKY/WX    TMP DP  RH WIND       PRES   REMARKS
KALISPELL      MOSUNNY   81  39  22 SE10      29.96F
MISSOULA       MOSUNNY   82  29  14 NW9       29.98F
BUTTE          SUNNY     78  30  17 VRB3      30.06F
MULLAN PASS    SUNNY     66  32  28 CALM      30.16F
ANACONDA         N/A     75  37  25 N8        30.03F
DEER LODGE       N/A     77  34  20 N5        30.05F
EUREKA           N/A     82  37  20 MISG      29.92F
HAMILTON         N/A     79  36  21 N5        30.01F
LIBBY            N/A     84  36  17 SE5       29.93F
PLAINS           N/A     86  39  18 SE1       29.97F
RONAN            N/A     80  39  23 SE5       30.04F
$$

MTZ008-052>055-162200-
SOUTHWEST MONTANA

CITY           SKY/WX    TMP DP  RH WIND       PRES   REMARKS
BOZEMAN        SUNNY     82  37  20 VRB3      30.00F
DILLON         SUNNY     78  42  27 W5        30.03F
W YELLOWSTONE  SUNNY     72  36  26 SW16G23   30.17F
ENNIS          CLOUDY    79  34  19 W6        30.10F
THREE FORKS      N/A     83  36  18 S5        29.98F
TWIN BRIDGES     N/A     81  35  19 CALM      30.02F
$$

MTZ009-010-012-014-046-048-049-054-162200-
EAST SLOPES AND CENTRAL MONTANA

CITY           SKY/WX    TMP DP  RH WIND       PRES   REMARKS
CUT BANK       PTSUNNY   80  30  16 W12G18    29.94F
GREAT FALLS    SUNNY     84  20   9 W13G23    29.93F
MALMSTROM AFB  SUNNY     83  25  12 SW15G24   29.93F
HELENA         SUNNY     86  30  13 W21       29.94F
AUGUSTA          N/A     77  24  14 W3        29.98F
BOWMANS CRNR     N/A     78  23  13 W13       29.96F
CHOTEAU          N/A     81  25  12 VRB5      29.96F
FAIRFIELD        N/A     80  25  13 SW7       29.95S
POWER            N/A     80  26  13 SW13G22   29.94F
RAYNESFORD       N/A     81  26  13 W9        29.96F
ULM              N/A     83  24  11 W14G24    29.93F
$$

MTZ011-013-016-021-045-047-050-051-162200-
NORTH CENTRAL MONTANA

CITY           SKY/WX    TMP DP  RH WIND       PRES   REMARKS
HAVRE          SUNNY     87  31  13 SW13G25   29.86F
LEWISTOWN      SUNNY     81  31  16 MISG      29.96F
N BAR RANCH      N/A     81  27  13 NW12G20   29.99S
CHINOOK          N/A     84  36  17 W16       29.85F
DENTON           N/A     82  30  15 W13G18    29.90F
GEYSER           N/A     81  27  13 W17       29.95F
GRASS RANGE      N/A     83  25  12 W13G21    29.91F
JUDITH GAP       N/A     81  24  12 NW14G23   29.97F
WINIFRED         N/A     81  28  14 N8G26     29.93F
$$

MTZ017>020-022>027-061-062-162200-
NORTHEAST MONTANA

CITY           SKY/WX    TMP DP  RH WIND       PRES   REMARKS
GLASGOW        MOSUNNY   86  43  22 SE9       29.83F
JORDAN           N/A     90  31  12 W16G29    29.85F
SIDNEY         SUNNY     84  50  30 S3        29.89F
WOLF POINT     SUNNY     88  45  22 E8        29.86F
MALTA          SUNNY     88  41  19 VRB6G12   29.83F
PLENTYWOOD       N/A     82  43  24 CALM      29.89F
POPLAR           N/A     84  45  24 SW5       29.88F
SCOBEY           N/A     85  44  23 NE5       29.87F
$$

MTZ028>42-056>058-162200-
SOUTHCENTRAL AND SOUTHEAST MONTANA

CITY           SKY/WX    TMP DP  RH WIND       PRES   REMARKS
BAKER          MOSUNNY   80  44  27 E5        29.96F
BILLINGS       MOSUNNY   85  36  17 W8        29.93F
LIVINGSTON     SUNNY     82  38  20 NW5       29.99F
MILES CITY     SUNNY     87  38  17 VRB6      29.89F
BIG TIMBER     SUNNY     82  34  17 W15G24    30.00F
EKALAKA          N/A     78  47  33 S8        29.97F
FORSYTH          N/A     88  39  18 NW5       29.88F
HARLOWTON        N/A     83  28  13 MISG      29.97F
LAUREL           N/A     87  42  20 S5        29.93F
$$

REGIONAL REPORTS...DAKOTAS

CITY           SKY/WX    TMP DP  RH WIND       PRES   REMARKS
WILLISTON      MOSUNNY   80  58  46 MISG      29.91F
MINOT          SUNNY     80  50  34 N9        29.91F
DICKINSON      MOSUNNY   79  52  38 VRB5      29.93F
BEACH            N/A     82  39  21 VRB7G13   29.97F
CROSBY           N/A     79  46  31 NE6       29.90F
TIOGA            N/A     77  48  36 NE5       29.94F
WATFORD CITY     N/A     82  52  34 VRB6      29.91F
BISMARCK       CLOUDY    78  57  48 N9        29.92S
GRAND FORKS    CLOUDY    68  66  93 N8        29.85S
FARGO          LGT RAIN  68  67  96 NW6       29.82F FOG
BUFFALO SD       N/A     80  49  33 VRB3      29.92F
RAPID CITY     MOSUNNY   79  48  33 NW9       30.00F
$$

REGIONAL REPORTS...WYOMING/IDAHO/WASHINGTON

CITY           SKY/WX    TMP DP  RH WIND       PRES   REMARKS
GILLETTE       SUNNY     80  29  15 SW9       30.02F
SHERIDAN       SUNNY     84  34  16 VRB5      29.98F
BUFFALO WY     CLOUDY    81  33  17 S15G22    30.06F
CODY           SUNNY     78  37  22 W3        30.04F
YELLOWSTONE LA   N/A     54  44  69 CALM      30.27F
IDAHO FALLS    MOSUNNY   82  36  19 SW20G30   30.07F
SALMON         SUNNY     82  39  21 NW7       29.99F
BOISE          SUNNY     85  41  21 NW10      30.00F
SPOKANE        MOSUNNY   81  40  23 SW12      29.99F
$$

REGIONAL REPORTS...ALBERTA

CITY           SKY/WX    TMP DP  RH WIND       PRES   REMARKS
EDMONTON       SUNNY     72  46  40 NW8       29.83S
CALGARY        PTSUNNY   75  36  23 W3        29.88F SMOKE
LETHBRIDGE     PTSUNNY   82  36  18 W12G18    29.87F
MEDICINE HAT   MOSUNNY   82  34  17 SW15      29.84F
$$

REGIONAL REPORTS...SASKATCHEWAN

CITY           SKY/WX    TMP DP  RH WIND       PRES   REMARKS
SWIFT CURRENT  MOSUNNY   77  43  29 E9        29.86F
REGINA         SUNNY     79  36  21 NW8       29.88F
SASKATOON      PTSUNNY   73  41  31 NW13      29.89S
$$



USA.gov is the U.S. government's official web portal to all federal, state and local government web resources and services.